Simultaneous Nadir Overpasses (SNOs) Predictions

Prediction of SNOs between METOP-A and TERRA Satellite Orbit:

Table of predicted SNOs for the next 14.0 days since TLE Epoch: 9/2/2017
Index Date (METOP-A) Time (METOP-A) Lat,Lon (METOP-A) SZA (METOP-A ) Date (TERRA) Time (TERRA) Lat,Lon (TERRA) SZA (TERRA ) Distance(km) Time Diff (sec)
1 09/03/2017 17:54:17 -81.35, 139.58 103.00 09/03/2017 17:54:53 -81.35, 139.44 103.00 2.33 36
2 09/03/2017 18:44:57 81.36, -52.91 77.04 09/03/2017 18:44:19 81.36, -52.78 77.04 2.18 38
3 09/06/2017 13:28:37 -81.36,-153.97 101.93 09/06/2017 13:29:08 -81.36,-154.02 101.92 1.02 31
4 09/06/2017 14:19:16 81.36, 13.93 78.16 09/06/2017 14:18:34 81.37, 13.73 78.11 3.34 42
5 09/09/2017 09:02:57 -81.36, -87.52 100.85 09/09/2017 09:03:23 -81.36, -87.55 100.84 0.70 26
6 09/09/2017 09:53:36 81.36, 80.37 79.24 09/09/2017 09:52:49 81.37, 80.19 79.20 3.01 47
7 09/12/2017 04:37:16 -81.36, -21.10 99.76 09/12/2017 04:37:37 -81.36, -21.13 99.75 0.71 21
8 09/12/2017 05:27:56 81.36, 146.39 80.28 09/12/2017 05:27:03 81.36, 146.58 80.28 3.26 53
9 09/15/2017 00:11:36 -81.36, 45.31 98.66 09/15/2017 00:11:52 -81.36, 45.22 98.66 1.55 16




NCC Satellite Simultaneous Nadir Overpasses (SNOs) Prediction Service
